Location: Brno
(49.2000°N, 16.6330°E)
Time: 15:27:46
(UTC+02:00)

Daily predictions for brighter satellites

Satellite Brightness Start Highest point End
(mag) Time Altitude Azimuth Time Altitude Azimuth Time Altitude Azimuth
SL-16 R/B 2.2 18:57:01 10° SSW 19:02:40 72° ESE 19:08:22 10° NNE
Meteor 1-21 Rocket 4.5 18:57:47 10° N 19:03:09 47° ENE 19:08:28 10° SE
USA 238 DEB 4.1 18:58:17 10° SW 19:05:19 71° NW 19:12:23 10° NE
USA 238 4.1 18:58:23 10° SW 19:05:25 72° NW 19:12:30 10° NE
SJ-6B 2.9 19:03:38 10° SSE 19:07:37 63° ENE 19:11:42 10° N
FENGYUN 3A 4.4 19:08:34 10° ESE 19:13:17 32° ENE 19:18:01 10° N
Cosmos 2219 Rocket 3.8 19:08:55 10° WSW 19:14:04 36° NW 19:19:17 10° NNE
Abrixas 4.4 19:13:16 10° S 19:15:11 16° SSE 19:17:00 10° ESE
Cosmos 1484 Rocket 3.5 19:11:44 10° S 19:15:33 60° W 19:19:29 10° NNW
Cosmos 1544 4.0 19:14:58 10° SSE 19:18:11 28° E 19:21:25 10° NNE
Cosmos 1408 Rocket 3.5 19:14:54 10° N 19:19:18 84° E 19:23:36 10° S
HJ-1C 3.8 19:16:18 10° SE 19:19:30 43° ENE 19:22:44 10° N
SKYMED 2 3.7 19:15:12 10° NNE 19:19:34 84° WNW 19:23:55 10° SSW
Cosmos 1500 Rocket 4.3 19:16:13 10° N 19:20:14 32° ENE 19:24:16 10° SE
SAR-Lupe-4 3.8 19:18:51 10° S 19:22:25 74° WSW 19:26:01 10° NNW
Cosmos 1758 3.6 19:19:02 10° SSE 19:22:58 48° E 19:26:57 10° NNE
Cosmos 1346 3.2 19:20:48 10° N 19:23:44 50° ENE 19:26:38 10° SSE
CENTAUR R/B 3.5 19:19:19 10° SSE 19:24:00 23° ESE 19:29:05 10° ENE
FREGAT/IRIS 2.6 19:21:24 10° SSE 19:24:29 75° ENE 19:27:34 10° N
Spot 1 4.1 19:24:17 10° SSE 19:28:52 72° ENE 19:33:13 10° N
Cosmos 1943 Rocket 3.2 19:26:17 10° NNW 19:31:09 29° NE 19:35:01 14° E
ATLAS CENTAUR R/B 4.0 19:28:06 10° SSW 19:33:45 67° SE 19:52:22 10° NE
NOAA 12 4.3 19:29:23 10° SSE 19:34:38 79° WSW 19:39:59 10° NNW
Helios 1A 3.0 19:31:49 10° SSE 19:35:59 64° ENE 19:40:11 10° N
Cosmos 1766 4.1 19:32:56 10° SSW 19:36:51 57° WNW 19:40:49 10° N
Cosmos 1452 Rocket 4.3 19:31:54 10° NNW 19:37:03 55° WSW 19:42:09 10° S
NOSS 3-2 (C) 3.5 19:30:54 10° SW 19:37:05 81° SE 19:43:55 10° NE
ASTEX 1 4.0 19:33:00 10° NNE 19:37:28 33° E 19:41:53 10° SSE
Cosmos 2369 Rocket 2.3 19:32:23 10° NNW 19:37:58 57° ENE 19:43:34 10° SE
CZ-4B DEB 3.5 19:36:40 12° SE 19:39:19 34° ENE 19:42:20 10° N
Meteor 2-12 Rocket 4.4 19:37:26 10° S 19:43:32 69° E 19:49:39 10° NNE
Cosmos 1943 3.9 19:38:56 10° SSE 19:43:40 29° ESE 19:48:25 10° NE
Meteor 1-28 Rocket 3.2 19:42:00 10° NNE 19:45:45 86° WNW 19:49:28 10° SSW
Nadezhda 4 Rocket 3.9 19:41:03 10° N 19:47:22 78° E 19:53:35 10° SSE
CZ-2D R/B 3.7 19:44:54 13° SE 19:48:05 41° ENE 19:51:45 10° N
Cosmos 2263 4.5 19:43:23 10° NNW 19:49:03 53° NE 19:53:33 16° SE
Cosmos 1743 Rocket 3.5 19:45:24 10° N 19:49:53 85° ENE 19:54:17 10° S
Cosmos 1603 3.7 19:44:45 10° SSW 19:50:26 68° ESE 19:56:10 10° NNE
Meteor 1-29 3.2 19:48:40 10° NNE 19:52:05 46° E 19:55:27 10° S
ALOS 2.3 19:47:36 10° SSE 19:52:12 60° ENE 19:56:49 10° N
Resurs 1-3 3.5 19:49:19 10° SSE 19:53:42 84° ENE 19:58:08 10° NNW
Cosmos 1331 Rocket 4.5 19:51:21 10° NNW 19:56:24 42° ENE 19:59:29 21° ESE
Cosmos 1939 Rocket 4.5 19:56:27 18° ENE 19:56:30 18° ENE 19:59:11 10° NNE
Cosmos 1420 Rocket 4.4 19:51:15 10° NNW 19:56:31 65° WSW 20:01:46 10° S
Cosmos 1092 Rocket 3.9 19:50:52 10° N 19:57:05 69° ENE 20:03:12 10° SSE
H-2A R/B 2.9 19:56:02 16° SE 19:58:58 52° ENE 20:02:44 10° N
Cosmos 468 4.4 19:54:08 10° SSW 19:59:22 83° ESE 20:04:38 10° NNE
SL-8 R/B 4.3 19:55:52 10° SW 20:00:17 39° SSE 20:02:19 26° ESE
Resurs 01 Rocket 2.0 19:56:47 10° S 20:01:13 66° WSW 20:05:39 10° NNW
Helios 1B rocket 2.3 19:57:57 10° NNE 20:02:05 75° ESE 20:06:12 10° S
Cosmos 1805 3.8 19:58:58 10° SSW 20:02:53 63° WNW 20:06:49 10° N
USA 215 3.6 19:59:43 13° ENE 20:05:15 41° SE 20:11:20 10° SSW
Sich 1 4.5 20:02:28 10° NNE 20:05:34 20° ENE 20:05:34 20° ENE
Cosmos 1655 Rocket 4.3 20:00:11 10° N 20:06:08 44° ENE 20:10:15 19° SE
Cosmos 2026 Rocket 4.1 20:02:26 10° N 20:08:21 49° ENE 20:12:56 17° SE
Spot 2 Rocket 4.3 20:09:57 10° S 20:14:52 52° W 20:19:49 10° NNW
Cosmos 1953 3.4 20:11:06 10° SSW 20:14:56 46° WNW 20:18:48 10° N
ATLAS 5 CENTAUR R/B 2.4 20:12:32 10° SW 20:17:24 62° NW 20:22:46 10° NE
Cosmos 1634 Rocket 4.0 20:11:42 10° S 20:17:46 58° E 20:23:50 10° NNE
USA 186 2.8 20:19:54 25° N 20:19:54 25° N 20:21:07 10° N
SL-24 R/B - RUBIN 2 4.5 20:12:10 10° NW 20:18:58 80° NE 20:22:45 27° SE
Cosmos 1048 Rocket 3.9 20:14:19 10° SSW 20:19:36 83° ESE 20:24:51 10° NNE
GP-B 3.1 20:15:55 10° N 20:20:19 57° E 20:22:59 23° SSE
Cosmos 1733 3.0 20:18:26 10° S 20:22:17 73° E 20:26:09 10° NNE
Cosmos 1269 Rocket 4.1 20:19:12 10° SSW 20:24:29 80° WNW 20:29:49 10° NNE
ATLAS 3B R/B 4.4 20:18:34 10° WNW 20:24:59 29° NNW 20:31:08 10° NE
Meteor 1-16 Rocket 4.2 20:20:37 10° SSE 20:25:39 47° E 20:30:47 10° NNE
Envisat 3.5 20:24:45 35° E 20:25:44 38° ENE 20:30:26 10° N
Cosmos 2058 3.0 20:22:05 10° N 20:26:08 53° ENE 20:26:44 48° ESE
Cosmos 1674 3.7 20:22:47 10° NNW 20:26:33 49° W 20:30:18 10° S
ISS -2.3 20:24:46 10° SW 20:27:02 34° S 20:27:02 34° S
Cosmos 1470 2.7 20:24:11 10° SSW 20:28:04 80° W 20:31:59 10° N
Cosmos 839 Rocket 4.5 20:20:42 10° NW 20:28:39 74° WSW 20:33:29 20° SSE
ERBS 2.2 20:27:06 10° NW 20:30:37 84° NE 20:30:50 77° E
Cosmos 2195 Rocket 4.4 20:24:17 10° N 20:30:40 79° E 20:36:19 14° SSE
Cosmos 1174 3.9 20:27:01 10° SSW 20:31:04 51° SE 20:31:04 51° SE
Cosmos 1805 Rocket 3.7 20:27:51 10° N 20:32:11 50° ENE 20:32:31 48° E
Meteor 1-11 4.2 20:26:41 10° N 20:32:31 73° ENE 20:35:55 26° SSE
Cosmos 2151 2.9 20:28:49 10° N 20:33:03 88° W 20:35:04 31° S
Cosmos 158 Rocket 3.7 20:28:23 10° S 20:33:13 67° ESE 20:38:06 10° NNE
H-2A R/B 3.5 20:34:36 24° NE 20:34:36 24° NE 20:37:33 10° N
Cosmos 1656 Rocket 4.2 20:29:11 10° NNW 20:34:14 37° NE 20:35:12 34° ENE
Cosmos 482 Debris 4.2 20:35:32 10° WNW 20:37:32 51° NNW 20:37:32 51° NNW
Cosmos 2221 3.2 20:42:24 39° NE 20:42:24 39° NE 20:45:26 10° NNE
Cosmos 1633 Rocket 3.9 20:40:01 10° N 20:43:14 35° NE 20:43:14 35° NE
SJ-11-01 4.2 20:45:00 57° SE 20:45:48 70° ENE 20:50:29 10° N
H-2A R/B 4.1 20:47:27 13° NE 20:47:27 13° NE 20:49:10 10° NNE
SL-16 R/B 4.3 20:42:37 10° W 20:47:21 26° NW 20:52:08 10° NNE
CZ-4C R/B 4.2 20:45:01 10° WNW 20:49:58 27° NNW 20:55:31 10° NE
ERS-1 Rocket 2.8 20:55:46 63° SE 20:56:30 76° ENE 21:01:32 10° NNW
Cosmos 1626 4.3 20:56:19 10° N 20:57:30 18° NNE 20:57:30 18° NNE
YAOGAN 11 4.0 21:00:48 78° NNE 21:00:48 78° NNE 21:04:51 10° NNW
Cosmos 1437 Rocket 4.5 21:06:48 25° N 21:06:48 25° N 21:08:30 10° NNE
Cosmos 1980 Rocket 4.5 21:05:48 10° N 21:07:29 11° NNE 21:08:56 10° NE
Cosmos 1666 Rocket 3.8 21:06:58 10° N 21:10:44 63° N 21:10:44 63° N
CENTAUR R/B 2.6 21:07:30 10° SW 21:13:45 84° NW 21:20:54 10° NE
Cosmos 1943 Rocket 2.4 21:09:47 10° NNW 21:15:21 63° WSW 21:16:34 50° SSW
Cosmos 2369 Rocket 4.0 21:16:59 10° NW 21:21:39 27° WSW 21:25:31 14° SSW
Cosmos 2180 Rocket 4.3 21:20:54 59° S 21:22:10 85° E 21:28:21 10° N
MetOp-B 4.4 21:23:33 56° NNE 21:23:33 56° NNE 21:28:05 10° N
Aureole 3 4.1 21:19:42 10° NNW 21:26:01 78° W 21:26:21 74° SW
Cosmos 1943 3.8 21:21:55 10° SW 21:27:25 54° NW 21:32:58 10° NNE
Cosmos 2251 Rocket 3.6 21:23:06 10° SSW 21:28:20 73° WNW 21:33:37 10° NNE
Gbstr 26 Del rocket 4.1 21:25:24 10° WSW 21:28:37 44° SW 21:28:37 44° SW
Cosmos 1939 Rocket 4.3 21:32:23 36° NW 21:32:23 36° NW 21:35:01 10° NNW
SPOT 5 4.0 21:35:03 33° N 21:35:03 33° N 21:37:31 10° NNW
Cosmos 2279 Rocket 4.3 21:34:37 25° SSW 21:38:21 64° WNW 21:44:33 10° N
Sich 1 4.4 21:39:30 10° NNW 21:42:34 37° NW 21:42:34 37° NW
USA 215 3.2 21:47:07 56° NE 21:48:37 79° NNW 21:55:09 10° WSW
Cosmos 2266 Rocket 4.0 21:45:23 10° N 21:51:27 79° NW 21:51:27 79° NW
Lacrosse 4 Rocket 4.2 21:55:27 10° N 21:56:26 12° N 21:56:26 12° N
ATLAS 5 CENTAUR R/B 4.1 21:59:05 10° WNW 22:03:12 23° NNW 22:06:25 14° NNE
Envisat 4.4 22:04:57 33° W 22:04:57 33° W 22:09:25 10° NNW
H-2A R/B 4.1 22:11:44 27° NW 22:11:44 27° NW 22:14:01 10° NNW
Cosmos 1697 Rocket 4.4 22:09:14 10° NNW 22:12:17 24° NNE 22:12:17 24° NNE
ATLAS 3B R/B 4.3 22:12:02 10° NW 22:18:00 26° N 22:20:10 23° NE
ARGOS 4.4 22:23:56 38° NNW 22:23:56 38° NNW 22:27:19 10° NNW
Terra 4.1 22:27:07 19° N 22:27:07 19° N 22:28:28 10° N
H-2A R/B 3.8 22:28:05 26° N 22:28:05 26° N 22:30:19 10° NNW
CZ-4C R/B 4.3 22:35:32 10° NW 22:40:38 24° N 22:42:12 23° NNE
Cosmos 1980 Rocket 4.2 22:48:13 10° NNW 22:50:41 23° N 22:50:41 23° N
CENTAUR R/B 4.1 22:59:31 10° W 23:05:27 33° NNW 23:12:04 10° NE
